[[{"header":{"parameterUnit":"m.s-1","parameterCategory":1,"la1":30.2991,"la2":30.254,"lo1":-89.0895,"lo2":-89.0444,"dy":0.0017,"dx":0.0017,"nx":28,"ny":28,"refTime":"2023-10-28T21:00:00:Z","depth":0,"parameterNumber":2,"parameterNumberName":"U-component_of_WINDS"},"data":[0,0,0,0,0,0,0,0,0,0,0,0,0,0,0,0,0,0,0,0,0,0,0,0,0,0,0,0,0,0,0,0,0,0,0,0,0,0,0,0,0,0,0,0,0,0,0,0,0,0,0,0,0,0,0,0,0,0,-2.6272,-2.6272,0,-2.6264,-2.6264,-2.6264,-2.6192,-2.619,-2.6188,-2.6187,-2.6179,-2.6181,-2.6182,0,0,0,0,0,0,0,0,0,0,0,0,0,-2.6224,-2.6226,-2.6272,-2.6272,-2.6272,-2.6264,-2.6264,-2.6264,-2.6192,-2.619,-2.6188,-2.6186,-2.6179,-2.618,-2.6182,0,0,0,0,0,0,0,0,0,0,0,0,0,-2.6234,-2.6226,-2.6272,-2.6235,-2.6231,-2.6264,-2.6264,-2.6264,-2.6193,-2.619,-2.6187,-2.6185,-2.6178,-2.618,-2.6182,-2.625,0,0,-2.6189,-2.619,0,0,0,0,0,0,0,0,-2.6233,-2.6236,-2.624,-2.6237,-2.6234,-2.6226,-2.6245,-2.626,-2.6193,-2.6207,-2.6187,-2.6183,-2.6197,-2.6198,-2.6202,-2.625,-2.625,-2.6189,-2.6191,-2.6192,-2.6192,0,0,0,0,0,0,0,-2.6233,-2.6236,-2.6269,-2.624,-2.6236,-2.6219,-2.6217,-2.6247,-2.6217,-2.6206,-2.6201,-2.6201,-2.6195,-2.62,-2.6201,-2.6249,-2.6189,-2.6191,-2.6193,-2.6194,-2.6354,-2.6357,0,0,0,0,0,0,-2.6237,-2.6236,-2.6269,-2.6269,-2.6227,-2.6222,-2.622,-2.6231,-2.6217,-2.6212,-2.6203,-2.6198,-2.6198,-2.6199,-2.6201,-2.6279,-2.6192,-2.6194,-2.6195,-2.6351,-2.6355,-2.6358,0,0,0,0,0,0,-2.6237,-2.6241,-2.6269,-2.6251,-2.6253,-2.6226,-2.6239,-2.6233,-2.6238,-2.6215,-2.6209,-2.6214,-2.6196,-2.6198,-2.6239,-2.6278,-2.6195,-2.6197,-2.6348,-2.6352,-2.6356,-2.6437,0,0,0,0,0,0,-2.6236,-2.6241,-2.6266,-2.6252,-2.6254,-2.6307,-2.6241,-2.6235,-2.6242,-2.6235,-2.6224,-2.6219,-2.6194,-2.6236,-2.6241,-2.628,-2.6199,-2.6344,-2.635,-2.6355,-2.6431,-2.6444,-2.6455,0,0,0,0,0,-2.6234,-2.6289,-2.6268,-2.6272,-2.6285,-2.6309,-2.6311,-2.628,-2.6245,-2.6271,-2.6256,-2.6219,-2.6274,-2.6241,-2.6246,-2.6286,-2.6341,-2.6348,-2.6354,-2.6425,-2.6441,-2.6455,0,0,0,0,0,0,-2.6307,-2.6286,-2.6262,-2.6314,-2.6314,-2.6297,-2.6327,-2.6298,-2.6308,-2.63,-2.6262,-2.626,-2.6307,-2.6301,-2.6265,-2.6351,-2.6301,-2.6309,-2.6353,-2.6368,-2.638,-2.638,-2.62,0,0,0,0,0,-2.633,-2.6352,-2.6332,-2.6379,-2.6381,-2.6355,-2.6364,-2.6341,-2.634,-2.6339,-2.6327,-2.6328,-2.6345,-2.6356,-2.6371,-2.6431,-2.6427,-2.6461,-2.6473,-2.6483,-2.649,-2.6521,-2.6536,-2.638,-2.6379,-2.6379,0,0,-2.6376,-2.6367,-2.6383,-2.6394,-2.6391,-2.6415,-2.6355,-2.6382,-2.6399,-2.6343,-2.6381,-2.6373,-2.6371,-2.6422,-2.6444,-2.6418,-2.6533,-2.6491,-2.6499,-2.6501,-2.653,-2.6544,-2.6558,-2.6384,-2.6383,-2.6382,0,0,-2.6471,-2.6467,-2.6506,-2.6506,-2.6503,-2.6485,-2.6495,-2.6484,-2.6476,-2.6514,-2.6473,-2.6493,-2.6523,-2.6523,-2.6527,-2.6627,-2.6594,-2.6633,-2.6695,-2.6726,-2.6739,-2.6749,-2.6784,-2.6797,-2.664,-2.664,-2.664,0,-2.6528,-2.6562,-2.653,-2.6561,-2.6567,-2.6519,-2.6559,-2.656,-2.6562,-2.6568,-2.6539,-2.6577,-2.6572,-2.6622,-2.6647,-2.6652,-2.6662,-2.6633,-2.6739,-2.675,-2.6759,-2.6792,-2.6806,-2.6645,-2.6644,-2.6644,-2.6644,0,-2.6632,-2.6657,-2.6689,-2.6693,-2.6703,-2.6739,-2.6713,-2.6727,-2.6705,-2.6691,-2.6731,-2.6724,-2.6736,-2.6747,-2.6724,-2.6795,-2.6779,-2.6746,-2.6694,-2.678,-2.681,-2.6822,-2.6652,-2.665,-2.6649,-2.6648,0,0,-2.677,-2.6759,-2.6771,-2.6772,-2.6768,-2.6786,-2.682,-2.6833,-2.6846,-2.685,-2.6877,-2.6906,-2.6875,-2.688,-2.6858,-2.6886,-2.6965,-2.6849,-2.6848,-2.687,-2.7042,-2.7066,-2.7081,-2.6944,-2.6946,-2.6948,-2.7042,0,-2.6861,-2.6917,-2.6891,-2.6951,-2.6973,-2.693,-2.6959,-2.696,-2.6949,-2.6967,-2.6955,-2.6975,-2.6934,-2.6936,-2.6962,-2.695,-2.6999,-2.6943,-2.6969,-2.697,-2.6969,-2.7097,-2.7122,-2.7211,-2.7054,-2.7056,-2.7057,0,-2.6973,-2.6983,-2.7045,-2.7038,-2.7046,-2.7073,-2.7084,-2.7102,-2.7102,-2.7093,-2.71,-2.7072,-2.7105,-2.7056,-2.7102,-2.7065,-2.7074,-2.707,-2.7073,-2.7072,-2.7017,-2.7099,-2.7238,-2.7251,-2.7076,-2.7074,-2.7073,0,-2.7067,-2.7096,-2.7137,-2.714,-2.7133,-2.7153,-2.7151,-2.7149,-2.7159,-2.7169,-2.7175,-2.7189,-2.7196,-2.7208,-2.7184,-2.7151,-2.7234,-2.7182,-2.7226,-2.7227,-2.7243,-2.7242,-2.7384,-2.7253,-2.7252,-2.7252,-2.7252,0,-2.717,-2.7209,-2.7179,-2.7203,-2.7247,-2.7218,-2.7262,-2.7255,-2.7255,-2.7278,-2.7242,-2.7265,-2.7234,-2.7254,-2.7236,-2.7277,-2.7281,-2.7274,-2.7268,-2.7276,-2.7276,-2.728,-2.7272,-2.7256,-2.7255,-2.7254,-2.7254,0,-2.7279,-2.7261,-2.7302,-2.7293,-2.7292,-2.7324,-2.7316,-2.734,-2.7328,-2.7358,-2.7363,-2.7344,-2.7366,-2.7345,-2.7366,-2.7354,-2.7408,-2.7395,-2.7408,-2.7403,-2.7448,-2.7443,-2.7596,-2.7614,-2.7472,-2.7474,-2.7475,0,-2.7345,-2.7374,-2.7369,-2.7383,-2.7383,-2.7405,-2.7416,-2.739,-2.7402,-2.7407,-2.743,-2.7449,-2.7462,-2.75,-2.7488,-2.7504,-2.749,-2.7542,-2.7492,-2.7499,-2.7489,-2.7487,-2.749,-2.7552,-2.7553,-2.7555,-2.7556,0,-2.7463,-2.7453,-2.747,-2.7485,-2.7499,-2.7509,-2.7516,-2.7529,-2.7502,-2.7519,-2.7541,-2.7552,-2.7574,-2.7594,-2.7607,-2.7605,-2.7576,-2.7573,-2.7583,-2.759,-2.7596,-2.7592,-2.7434,-2.7568,-2.7567,-2.7566,-2.7566,-2.7565,-2.7552,-2.7576,-2.7577,-2.7597,-2.7601,-2.7609,-2.7631,-2.7622,-2.7641,-2.7657,-2.7641,-2.7669,-2.7671,-2.7685,-2.7687,-2.7709,-2.7687,-2.7702,-2.7706,-2.771,-2.7716,-2.7595,-2.7711,-2.7711,-2.7711,-2.771,-2.771,0,-2.7667,-2.7666,-2.7686,-2.7697,-2.7714,-2.7688,-2.7695,-2.7711,-2.7735,-2.774,-2.7755,-2.7782,-2.7802,-2.7793,-2.781,-2.7829,-2.7817,-2.7835,-2.7832,-2.7832,-2.7735,-2.7723,-2.7845,-2.7845,-2.7844,-2.7844,-2.7844,-2.7844,-2.7728,-2.7769,-2.776,-2.7802,-2.7801,-2.7828,-2.7835,-2.7843,-2.7846,-2.7878,-2.7895,-2.7889,-2.7889,-2.7906,-2.7924,-2.7921,-2.7928,-2.7951,-2.7943,-2.7852,-2.7839,-2.7826,-2.7815,-2.7953,-2.7953,-2.8037,-2.8038,-2.8039]},{"header":{"parameterUnit":"m.s-1","parameterCategory":1,"la1":30.2991,"la2":30.254,"lo1":-89.0895,"lo2":-89.0444,"dy":0.0017,"dx":0.0017,"nx":28,"ny":28,"refTime":"2023-10-28T21:00:00:Z","depth":0,"parameterNumber":3,"parameterNumberName":"V-component_of_WINDS"},"data":[0,0,0,0,0,0,0,0,0,0,0,0,0,0,0,0,0,0,0,0,0,0,0,0,0,0,0,0,0,0,0,0,0,0,0,0,0,0,0,0,0,0,0,0,0,0,0,0,0,0,0,0,0,0,0,0,0,0,1.1058,1.1058,0,1.1042,1.1042,1.1041,1.0971,1.097,1.0968,1.0967,1.0952,1.0953,1.0954,0,0,0,0,0,0,0,0,0,0,0,0,0,1.1033,1.1034,1.1058,1.1058,1.1058,1.1042,1.1042,1.1041,1.0972,1.097,1.0968,1.0966,1.0952,1.0953,1.0955,0,0,0,0,0,0,0,0,0,0,0,0,0,1.1033,1.1034,1.1058,1.1021,1.1017,1.1042,1.1042,1.1041,1.0972,1.097,1.0967,1.0965,1.0951,1.0953,1.0955,1.1014,0,0,1.096,1.0961,0,0,0,0,0,0,0,0,1.1033,1.1034,1.1027,1.1024,1.102,1.1006,1.1027,1.1032,1.0973,1.0989,1.0967,1.0964,1.0972,1.0972,1.0974,1.1014,1.1013,1.096,1.0961,1.0962,1.0962,0,0,0,0,0,0,0,1.1033,1.1035,1.1052,1.1027,1.1022,1.1007,1.1004,1.1028,1.0995,1.0988,1.0983,1.0982,1.097,1.0973,1.0974,1.1013,1.096,1.0962,1.0963,1.0963,1.1104,1.1107,0,0,0,0,0,0,1.1038,1.1035,1.1052,1.1051,1.1021,1.1009,1.1006,1.1013,1.0994,1.0989,1.0984,1.0978,1.0971,1.0972,1.0973,1.1044,1.0962,1.0963,1.0964,1.1101,1.1105,1.1108,0,0,0,0,0,0,1.1038,1.104,1.1053,1.1042,1.1042,1.1012,1.102,1.1014,1.1017,1.0991,1.0985,1.0993,1.0969,1.097,1.1005,1.1042,1.0964,1.0966,1.1098,1.1102,1.1106,1.1184,0,0,0,0,0,0,1.1038,1.1041,1.1062,1.1043,1.1043,1.1084,1.1023,1.1015,1.102,1.1013,1.0998,1.0993,1.0968,1.1003,1.1007,1.1043,1.0967,1.1095,1.11,1.1105,1.1178,1.1191,1.1201,0,0,0,0,0,1.1037,1.1084,1.1063,1.1065,1.1068,1.1086,1.1087,1.1055,1.1023,1.1045,1.1029,1.0994,1.1038,1.1007,1.1011,1.1048,1.1092,1.1099,1.1104,1.1173,1.1188,1.1201,0,0,0,0,0,0,1.1108,1.1081,1.1057,1.1099,1.1096,1.1074,1.1101,1.1072,1.1077,1.1071,1.1032,1.103,1.1071,1.1063,1.103,1.1107,1.1059,1.1066,1.111,1.1124,1.1136,1.1137,1.0968,0,0,0,0,0,1.1128,1.1144,1.112,1.116,1.1159,1.1131,1.1137,1.1114,1.1109,1.1107,1.1093,1.1091,1.1104,1.1114,1.1124,1.1177,1.1175,1.1205,1.1217,1.1226,1.1233,1.1264,1.1278,1.1128,1.1128,1.1128,0,0,1.117,1.1158,1.117,1.1174,1.1168,1.1187,1.113,1.1151,1.1166,1.111,1.1143,1.1133,1.1128,1.1173,1.1192,1.1168,1.1274,1.1234,1.1242,1.1243,1.1271,1.1286,1.1298,1.1132,1.1131,1.113,0,0,1.1258,1.1249,1.1282,1.1279,1.1271,1.1253,1.1261,1.1245,1.1237,1.1269,1.1229,1.1246,1.1269,1.1268,1.1271,1.1363,1.1331,1.1367,1.1427,1.1457,1.1469,1.1479,1.1514,1.1527,1.1374,1.1374,1.1374,0,1.1311,1.1337,1.1303,1.1328,1.1333,1.1284,1.1319,1.1318,1.1315,1.1319,1.1292,1.1322,1.1315,1.1361,1.1384,1.1387,1.1397,1.1368,1.147,1.148,1.1489,1.1522,1.1535,1.1379,1.1378,1.1378,1.1377,0,1.1405,1.1424,1.1452,1.1451,1.1458,1.1488,1.1461,1.1473,1.145,1.1435,1.1471,1.1461,1.147,1.1479,1.1457,1.1523,1.1509,1.1476,1.1428,1.1508,1.1539,1.1551,1.1385,1.1384,1.1382,1.1381,0,0,1.1533,1.1516,1.1527,1.1528,1.1518,1.1533,1.1562,1.1572,1.1584,1.1584,1.161,1.1632,1.1604,1.1607,1.1584,1.1611,1.1687,1.1575,1.1575,1.1598,1.1763,1.1789,1.1803,1.1667,1.1669,1.1671,1.1764,0,1.1618,1.1666,1.1638,1.1691,1.171,1.1667,1.1693,1.1691,1.1679,1.1695,1.1682,1.17,1.1659,1.1661,1.1685,1.1673,1.172,1.1666,1.1692,1.1693,1.1695,1.1819,1.1845,1.1933,1.1776,1.1778,1.1779,0,1.1722,1.1729,1.1784,1.1774,1.1781,1.1805,1.1813,1.1828,1.1826,1.1816,1.1822,1.1794,1.1825,1.1777,1.1821,1.1784,1.1794,1.179,1.1793,1.1794,1.1741,1.1825,1.196,1.1974,1.1797,1.1796,1.1794,0,1.1813,1.1835,1.1872,1.1874,1.1862,1.1881,1.1877,1.1873,1.1882,1.189,1.1896,1.1908,1.1914,1.1925,1.1902,1.1869,1.195,1.19,1.1944,1.1945,1.1963,1.1962,1.2103,1.1968,1.1968,1.1967,1.1967,0,1.1911,1.1947,1.1913,1.1936,1.1976,1.1945,1.1986,1.1978,1.1976,1.1998,1.1961,1.1983,1.1951,1.1971,1.1953,1.1994,1.1997,1.1991,1.1986,1.1994,1.1996,1.2,1.1994,1.1971,1.197,1.1969,1.1969,0,1.2018,1.1997,1.2034,1.2022,1.202,1.205,1.204,1.2062,1.2049,1.2078,1.2083,1.2062,1.2084,1.2062,1.2082,1.2071,1.2126,1.2111,1.2126,1.2122,1.2169,1.2165,1.2318,1.2337,1.2189,1.2191,1.2192,0,1.2082,1.2109,1.21,1.2112,1.2111,1.2131,1.214,1.2112,1.2124,1.2127,1.2149,1.2167,1.2181,1.2218,1.2205,1.2222,1.2208,1.2261,1.221,1.2219,1.2211,1.221,1.2214,1.2271,1.2273,1.2274,1.2275,0,1.2198,1.2187,1.2202,1.2214,1.2226,1.2235,1.224,1.2252,1.2224,1.2239,1.2261,1.2272,1.2293,1.2313,1.2326,1.2324,1.2297,1.2292,1.2303,1.2312,1.2321,1.2319,1.2155,1.2288,1.2287,1.2286,1.2285,1.2285,1.2287,1.231,1.2308,1.2327,1.2329,1.2336,1.2356,1.2347,1.2364,1.2379,1.2362,1.239,1.2392,1.2406,1.2409,1.2431,1.2409,1.2425,1.243,1.2434,1.2442,1.2317,1.2433,1.2433,1.2433,1.2432,1.2432,0,1.2402,1.24,1.2418,1.2427,1.2443,1.2415,1.2421,1.2437,1.2461,1.2465,1.2479,1.2507,1.2527,1.2518,1.2536,1.2556,1.2544,1.2562,1.256,1.2561,1.2459,1.2449,1.2572,1.2572,1.2572,1.2572,1.2571,1.2571,1.2464,1.2503,1.2493,1.2534,1.2532,1.2558,1.2564,1.2572,1.2575,1.2607,1.2624,1.2618,1.2617,1.2636,1.2654,1.2651,1.2661,1.2684,1.2677,1.2582,1.2568,1.2555,1.2544,1.2686,1.2686,1.2777,1.2777,1.2778]}]]